Time,TemperatureF,DewpointF,PressureIn,WindDirection,WindDirectionDegrees,WindSpeedMPH,WindSpeedGustMPH,Humidity,HourlyPrecipIn,Conditions,Clouds,dailyrainin,SoftwareType,DateUTC
2013-02-15 00:00:00,38.7,37.6,29.97,North,0,0.0,0.0,96,0.00,CLR,CLR,0.00,WeatherDisplay:10.37,2013-02-15 05:00:00,
2013-02-15 00:01:00,38.7,37.6,29.97,North,0,0.0,0.0,96,0.00,CLR,CLR,0.00,WeatherDisplay:10.37,2013-02-15 05:01:00,
2013-02-15 00:06:00,38.7,37.6,29.97,North,0,0.0,0.0,96,0.00,CLR,CLR,0.00,WeatherDisplay:10.37,2013-02-15 05:06:00,
2013-02-15 00:11:00,38.7,37.6,29.97,North,0,0.0,0.0,96,0.00,CLR,CLR,0.00,WeatherDisplay:10.37,2013-02-15 05:11:00,
2013-02-15 00:16:00,38.5,37.4,29.97,North,0,0.0,0.0,96,0.00,CLR,CLR,0.00,WeatherDisplay:10.37,2013-02-15 05:16:00,
2013-02-15 00:21:00,38.5,37.4,29.97,North,0,0.0,0.0,96,0.00,CLR,CLR,0.00,WeatherDisplay:10.37,2013-02-15 05:21:00,
2013-02-15 00:27:00,38.5,37.4,29.97,North,0,0.0,0.0,96,0.00,CLR,CLR,0.00,WeatherDisplay:10.37,2013-02-15 05:27:00,
2013-02-15 00:32:00,38.5,37.4,29.97,North,0,0.0,0.0,96,0.00,CLR,CLR,0.00,WeatherDisplay:10.37,2013-02-15 05:32:00,
2013-02-15 00:37:00,38.5,37.4,30.00,North,0,0.0,0.0,96,0.00,CLR,CLR,0.00,WeatherDisplay:10.37,2013-02-15 05:37:00,
2013-02-15 00:42:00,38.3,37.3,30.00,North,0,0.0,0.0,96,0.00,CLR,CLR,0.00,WeatherDisplay:10.37,2013-02-15 05:42:00,
2013-02-15 00:47:00,38.5,37.4,30.00,North,0,0.0,0.0,96,0.00,CLR,CLR,0.00,WeatherDisplay:10.37,2013-02-15 05:47:00,
2013-02-15 00:52:00,38.1,37.3,30.00,North,0,0.0,0.0,97,0.00,CLR,CLR,0.00,WeatherDisplay:10.37,2013-02-15 05:52:00,
2013-02-15 00:58:00,37.9,37.2,30.00,North,0,0.0,0.0,97,0.00,CLR,CLR,0.00,WeatherDisplay:10.37,2013-02-15 05:58:00,
2013-02-15 01:03:00,37.9,37.2,29.97,North,0,0.0,0.0,97,0.00,CLR,CLR,0.00,WeatherDisplay:10.37,2013-02-15 06:03:00,
2013-02-15 01:08:00,37.8,37.0,29.97,North,0,0.0,0.0,97,0.00,CLR,CLR,0.00,WeatherDisplay:10.37,2013-02-15 06:08:00,
2013-02-15 01:13:00,37.4,36.4,29.97,North,0,0.0,0.0,96,0.00,CLR,CLR,0.00,WeatherDisplay:10.37,2013-02-15 06:13:00,
2013-02-15 01:18:00,37.4,36.6,30.00,North,0,0.0,0.0,97,0.00,CLR,CLR,0.00,WeatherDisplay:10.37,2013-02-15 06:18:00,
2013-02-15 01:23:00,37.2,36.4,30.00,North,0,0.0,0.0,97,0.00,CLR,CLR,0.00,WeatherDisplay:10.37,2013-02-15 06:23:00,
2013-02-15 01:28:00,37.0,36.3,30.00,North,0,0.0,0.0,97,0.00,CLR,CLR,0.00,WeatherDisplay:10.37,2013-02-15 06:28:00,
2013-02-15 01:33:00,37.4,36.6,29.97,North,0,0.0,0.0,97,0.00,CLR,CLR,0.00,WeatherDisplay:10.37,2013-02-15 06:33:00,
2013-02-15 01:38:00,37.0,36.3,29.97,North,0,0.0,0.0,97,0.00,CLR,CLR,0.00,WeatherDisplay:10.37,2013-02-15 06:38:00,
2013-02-15 01:44:00,37.2,36.4,29.97,North,0,0.0,0.0,97,0.00,CLR,CLR,0.00,WeatherDisplay:10.37,2013-02-15 06:44:00,
2013-02-15 01:49:00,36.3,35.6,29.97,North,0,0.0,0.0,97,0.00,CLR,CLR,0.00,WeatherDisplay:10.37,2013-02-15 06:49:00,
2013-02-15 01:54:00,36.3,35.6,29.97,North,0,0.0,0.0,97,0.00,CLR,CLR,0.00,WeatherDisplay:10.37,2013-02-15 06:54:00,
2013-02-15 01:59:00,36.3,35.6,29.97,North,0,0.0,0.0,97,0.00,CLR,CLR,0.00,WeatherDisplay:10.37,2013-02-15 06:59:00,
2013-02-15 02:04:00,36.1,35.4,30.00,North,0,0.0,0.0,97,0.00,CLR,CLR,0.00,WeatherDisplay:10.37,2013-02-15 07:04:00,
2013-02-15 02:09:00,37.6,36.8,30.00,North,0,0.0,0.0,97,0.00,CLR,CLR,0.00,WeatherDisplay:10.37,2013-02-15 07:09:00,
2013-02-15 02:14:00,36.7,36.2,30.00,North,0,0.0,0.0,98,0.00,CLR,CLR,0.00,WeatherDisplay:10.37,2013-02-15 07:14:00,
2013-02-15 02:19:00,36.1,35.6,29.97,North,0,0.0,0.0,98,0.00,CLR,CLR,0.00,WeatherDisplay:10.37,2013-02-15 07:19:00,
2013-02-15 02:24:00,36.0,35.5,29.97,North,0,0.0,0.0,98,0.00,CLR,CLR,0.00,WeatherDisplay:10.37,2013-02-15 07:24:00,
2013-02-15 02:29:00,35.1,34.6,29.97,North,0,0.0,0.0,98,0.00,CLR,CLR,0.00,WeatherDisplay:10.37,2013-02-15 07:29:00,
2013-02-15 02:34:00,35.1,34.6,29.97,North,0,0.0,0.0,98,0.00,CLR,CLR,0.00,WeatherDisplay:10.37,2013-02-15 07:34:00,
2013-02-15 02:40:00,36.3,35.8,29.97,North,0,0.0,0.0,98,0.00,CLR,CLR,0.00,WeatherDisplay:10.37,2013-02-15 07:40:00,
2013-02-15 02:45:00,35.6,35.1,29.97,North,0,0.0,0.0,98,0.00,CLR,CLR,0.00,WeatherDisplay:10.37,2013-02-15 07:45:00,
2013-02-15 02:50:00,36.3,35.8,29.97,North,0,0.0,0.0,98,0.00,CLR,CLR,0.00,WeatherDisplay:10.37,2013-02-15 07:50:00,
2013-02-15 02:55:00,37.0,36.5,29.97,North,0,0.0,0.0,98,0.00,CLR,CLR,0.00,WeatherDisplay:10.37,2013-02-15 07:55:00,
2013-02-15 03:00:00,37.6,37.1,29.97,North,0,0.0,0.0,98,0.00,CLR,CLR,0.00,WeatherDisplay:10.37,2013-02-15 08:00:00,
2013-02-15 03:06:00,38.1,37.6,29.97,North,0,0.0,0.0,98,0.00,CLR,CLR,0.00,WeatherDisplay:10.37,2013-02-15 08:06:00,
2013-02-15 03:11:00,37.4,36.9,29.97,North,0,0.0,0.0,98,0.00,CLR,CLR,0.00,WeatherDisplay:10.37,2013-02-15 08:11:00,
2013-02-15 03:16:00,36.7,36.2,29.97,North,0,0.0,0.0,98,0.00,CLR,CLR,0.00,WeatherDisplay:10.37,2013-02-15 08:16:00,
2013-02-15 03:21:00,36.0,35.5,29.97,North,0,0.0,0.0,98,0.00,CLR,CLR,0.00,WeatherDisplay:10.37,2013-02-15 08:21:00,
2013-02-15 03:26:00,36.0,35.5,29.97,North,0,0.0,0.0,98,0.00,CLR,CLR,0.00,WeatherDisplay:10.37,2013-02-15 08:26:00,
2013-02-15 03:31:00,35.6,35.1,29.97,North,0,0.0,0.0,98,0.00,CLR,CLR,0.00,WeatherDisplay:10.37,2013-02-15 08:31:00,
2013-02-15 03:36:00,35.6,35.1,29.97,North,0,0.0,0.0,98,0.00,CLR,CLR,0.00,WeatherDisplay:10.37,2013-02-15 08:36:00,
2013-02-15 03:41:00,35.4,34.9,29.97,North,0,0.0,0.0,98,0.00,CLR,CLR,0.00,WeatherDisplay:10.37,2013-02-15 08:41:00,
2013-02-15 03:47:00,35.4,34.9,29.97,North,0,0.0,0.0,98,0.00,CLR,CLR,0.00,WeatherDisplay:10.37,2013-02-15 08:47:00,
2013-02-15 03:52:00,34.9,34.4,29.97,North,0,0.0,0.0,98,0.00,CLR,CLR,0.00,WeatherDisplay:10.37,2013-02-15 08:52:00,
2013-02-15 03:57:00,34.7,34.2,29.97,North,0,0.0,0.0,98,0.00,CLR,CLR,0.00,WeatherDisplay:10.37,2013-02-15 08:57:00,
2013-02-15 04:02:00,34.7,34.7,29.97,North,0,0.0,0.0,100,0.00,,,0.00,WeatherDisplay:10.37,2013-02-15 09:02:00,
2013-02-15 04:07:00,34.7,34.2,30.00,North,0,0.0,0.0,98,0.00,CLR,CLR,0.00,WeatherDisplay:10.37,2013-02-15 09:07:00,
2013-02-15 04:12:00,34.3,33.8,30.00,North,0,0.0,0.0,98,0.00,CLR,CLR,0.00,WeatherDisplay:10.37,2013-02-15 09:12:00,
2013-02-15 04:17:00,34.5,34.0,29.97,North,0,0.0,0.0,98,0.00,CLR,CLR,0.00,WeatherDisplay:10.37,2013-02-15 09:17:00,
2013-02-15 04:23:00,34.3,33.8,29.97,North,0,0.0,0.0,98,0.00,CLR,CLR,0.00,WeatherDisplay:10.37,2013-02-15 09:23:00,
2013-02-15 04:28:00,34.5,34.0,29.97,North,0,0.0,0.0,98,0.00,CLR,CLR,0.00,WeatherDisplay:10.37,2013-02-15 09:28:00,
2013-02-15 04:33:00,34.2,33.7,29.97,North,0,0.0,0.0,98,0.00,CLR,CLR,0.00,WeatherDisplay:10.37,2013-02-15 09:33:00,
2013-02-15 04:38:00,33.6,33.1,29.97,North,0,0.0,0.0,98,0.00,CLR,CLR,0.00,WeatherDisplay:10.37,2013-02-15 09:38:00,
2013-02-15 04:43:00,33.8,33.3,29.97,North,0,0.0,0.0,98,0.00,CLR,CLR,0.00,WeatherDisplay:10.37,2013-02-15 09:43:00,
2013-02-15 04:48:00,33.8,33.3,29.97,North,0,0.0,0.0,98,0.00,CLR,CLR,0.00,WeatherDisplay:10.37,2013-02-15 09:48:00,
2013-02-15 04:53:00,34.3,33.8,29.97,North,0,0.0,0.0,98,0.00,CLR,CLR,0.00,WeatherDisplay:10.37,2013-02-15 09:53:00,
2013-02-15 04:58:00,33.8,33.3,29.97,North,0,0.0,0.0,98,0.00,CLR,CLR,0.00,WeatherDisplay:10.37,2013-02-15 09:58:00,
2013-02-15 05:04:00,33.8,33.3,29.97,North,0,0.0,0.0,98,0.00,CLR,CLR,0.00,WeatherDisplay:10.37,2013-02-15 10:04:00,
2013-02-15 05:09:00,34.0,33.5,29.97,North,0,0.0,0.0,98,0.00,CLR,CLR,0.00,WeatherDisplay:10.37,2013-02-15 10:09:00,
2013-02-15 05:14:00,33.4,32.9,29.97,North,0,0.0,0.0,98,0.00,CLR,CLR,0.00,WeatherDisplay:10.37,2013-02-15 10:14:00,
2013-02-15 05:19:00,33.1,32.6,29.97,North,0,0.0,0.0,98,0.00,CLR,CLR,0.00,WeatherDisplay:10.37,2013-02-15 10:19:00,
2013-02-15 05:24:00,33.1,32.6,29.97,North,0,0.0,0.0,98,0.00,CLR,CLR,0.00,WeatherDisplay:10.37,2013-02-15 10:24:00,
2013-02-15 05:29:00,33.1,32.6,29.97,North,0,0.0,0.0,98,0.00,CLR,CLR,0.00,WeatherDisplay:10.37,2013-02-15 10:29:00,
2013-02-15 05:35:00,33.1,32.6,29.97,North,0,0.0,0.0,98,0.00,CLR,CLR,0.00,WeatherDisplay:10.37,2013-02-15 10:35:00,
2013-02-15 05:40:00,33.1,32.6,29.97,North,0,0.0,0.0,98,0.00,CLR,CLR,0.00,WeatherDisplay:10.37,2013-02-15 10:40:00,
2013-02-15 05:45:00,33.3,32.8,29.97,North,0,0.0,0.0,98,0.00,CLR,CLR,0.00,WeatherDisplay:10.37,2013-02-15 10:45:00,
2013-02-15 05:50:00,33.1,32.6,29.97,North,0,0.0,0.0,98,0.00,CLR,CLR,0.00,WeatherDisplay:10.37,2013-02-15 10:50:00,
2013-02-15 05:55:00,33.1,32.6,29.97,North,0,0.0,0.0,98,0.00,CLR,CLR,0.00,WeatherDisplay:10.37,2013-02-15 10:55:00,
2013-02-15 06:00:00,32.9,32.4,29.97,North,0,0.0,0.0,98,0.00,CLR,CLR,0.00,WeatherDisplay:10.37,2013-02-15 11:00:00,
2013-02-15 06:05:00,32.5,32.0,29.97,North,0,0.0,0.0,98,0.00,CLR,CLR,0.00,WeatherDisplay:10.37,2013-02-15 11:05:00,
2013-02-15 06:10:00,32.5,32.0,29.97,North,0,0.0,0.0,98,0.00,CLR,CLR,0.00,WeatherDisplay:10.37,2013-02-15 11:10:00,
2013-02-15 06:15:00,32.7,32.2,29.97,North,0,0.0,0.0,98,0.00,CLR,CLR,0.00,WeatherDisplay:10.37,2013-02-15 11:15:00,
2013-02-15 06:21:00,32.5,32.0,29.97,North,0,0.0,0.0,98,0.00,CLR,CLR,0.00,WeatherDisplay:10.37,2013-02-15 11:21:00,
2013-02-15 06:26:00,32.7,32.2,29.97,North,0,0.0,0.0,98,0.00,CLR,CLR,0.00,WeatherDisplay:10.37,2013-02-15 11:26:00,
2013-02-15 06:31:00,32.7,32.2,29.97,North,0,0.0,0.0,98,0.00,CLR,CLR,0.00,WeatherDisplay:10.37,2013-02-15 11:31:00,
2013-02-15 06:36:00,33.1,32.6,29.97,North,0,0.0,0.0,98,0.00,CLR,CLR,0.00,WeatherDisplay:10.37,2013-02-15 11:36:00,
2013-02-15 06:42:00,33.3,32.8,29.97,North,0,0.0,0.0,98,0.00,CLR,CLR,0.00,WeatherDisplay:10.37,2013-02-15 11:42:00,
2013-02-15 06:47:00,33.8,33.3,29.97,North,0,0.0,0.0,98,0.00,CLR,CLR,0.00,WeatherDisplay:10.37,2013-02-15 11:47:00,
2013-02-15 06:52:00,34.0,33.5,29.97,North,0,0.0,0.0,98,0.00,CLR,CLR,0.00,WeatherDisplay:10.37,2013-02-15 11:52:00,
2013-02-15 06:57:00,35.1,34.6,29.97,North,0,0.0,0.0,98,0.00,CLR,CLR,0.00,WeatherDisplay:10.37,2013-02-15 11:57:00,
2013-02-15 07:02:00,36.0,35.5,29.97,North,0,0.0,0.0,98,0.00,CLR,CLR,0.00,WeatherDisplay:10.37,2013-02-15 12:02:00,
2013-02-15 07:07:00,35.8,35.3,29.97,North,0,0.0,0.0,98,0.00,CLR,CLR,0.00,WeatherDisplay:10.37,2013-02-15 12:07:00,
2013-02-15 07:13:00,36.1,35.6,29.97,North,0,0.0,0.0,98,0.00,CLR,CLR,0.00,WeatherDisplay:10.37,2013-02-15 12:13:00,
2013-02-15 07:18:00,37.0,36.5,30.00,North,0,0.0,0.0,98,0.00,CLR,CLR,0.00,WeatherDisplay:10.37,2013-02-15 12:18:00,
2013-02-15 07:23:00,37.4,36.9,30.00,North,0,0.0,0.0,98,0.00,CLR,CLR,0.00,WeatherDisplay:10.37,2013-02-15 12:23:00,
2013-02-15 07:28:00,37.6,37.1,30.00,North,0,0.0,0.0,98,0.00,CLR,CLR,0.00,WeatherDisplay:10.37,2013-02-15 12:28:00,
2013-02-15 07:33:00,37.9,37.4,30.00,North,0,0.0,0.0,98,0.00,CLR,CLR,0.00,WeatherDisplay:10.37,2013-02-15 12:33:00,
2013-02-15 07:38:00,38.3,37.8,30.00,North,0,0.0,0.0,98,0.00,CLR,CLR,0.00,WeatherDisplay:10.37,2013-02-15 12:38:00,
2013-02-15 07:44:00,38.7,38.1,30.00,North,0,0.0,0.0,98,0.00,CLR,CLR,0.00,WeatherDisplay:10.37,2013-02-15 12:44:00,
2013-02-15 07:49:00,39.4,38.9,29.97,North,0,0.0,0.0,98,0.00,CLR,CLR,0.00,WeatherDisplay:10.37,2013-02-15 12:49:00,
2013-02-15 07:54:00,39.9,39.4,29.97,North,0,0.0,0.0,98,0.00,CLR,CLR,0.00,WeatherDisplay:10.37,2013-02-15 12:54:00,
2013-02-15 07:59:00,40.3,39.8,29.97,North,0,0.0,0.0,98,0.00,CLR,CLR,0.00,WeatherDisplay:10.37,2013-02-15 12:59:00,
2013-02-15 08:04:00,41.0,40.5,30.00,North,0,0.0,0.0,98,0.00,CLR,CLR,0.00,WeatherDisplay:10.37,2013-02-15 13:04:00,
2013-02-15 08:09:00,41.5,41.0,30.00,North,0,0.0,0.0,98,0.00,CLR,CLR,0.00,WeatherDisplay:10.37,2013-02-15 13:09:00,
2013-02-15 08:14:00,42.3,41.7,30.00,North,0,0.0,0.0,98,0.00,CLR,CLR,0.00,WeatherDisplay:10.37,2013-02-15 13:14:00,
2013-02-15 08:19:00,42.6,42.1,30.00,North,0,0.0,0.0,98,0.00,CLR,CLR,0.00,WeatherDisplay:10.37,2013-02-15 13:19:00,
2013-02-15 08:25:00,43.7,43.2,30.00,North,0,0.0,0.0,98,0.00,CLR,CLR,0.00,WeatherDisplay:10.37,2013-02-15 13:25:00,
2013-02-15 08:30:00,44.1,43.5,30.00,North,0,0.0,0.0,98,0.00,CLR,CLR,0.00,WeatherDisplay:10.37,2013-02-15 13:30:00,
2013-02-15 08:35:00,45.0,44.4,30.00,North,0,0.0,0.0,98,0.00,CLR,CLR,0.00,WeatherDisplay:10.37,2013-02-15 13:35:00,
2013-02-15 08:40:00,45.3,44.8,30.00,North,0,0.0,0.0,98,0.00,CLR,CLR,0.00,WeatherDisplay:10.37,2013-02-15 13:40:00,
2013-02-15 08:45:00,46.2,45.7,30.00,North,0,0.0,0.0,98,0.00,CLR,CLR,0.00,WeatherDisplay:10.37,2013-02-15 13:45:00,
2013-02-15 08:50:00,46.6,46.0,30.00,North,0,0.0,0.0,98,0.00,CLR,CLR,0.00,WeatherDisplay:10.37,2013-02-15 13:50:00,
2013-02-15 08:55:00,47.3,46.8,30.00,North,0,0.0,0.0,98,0.00,CLR,CLR,0.00,WeatherDisplay:10.37,2013-02-15 13:55:00,
2013-02-15 09:00:00,47.5,46.7,30.00,North,0,0.0,0.0,97,0.00,CLR,CLR,0.00,WeatherDisplay:10.37,2013-02-15 14:00:00,
2013-02-15 09:05:00,48.2,46.3,30.03,North,0,0.0,0.0,93,0.00,CLR,CLR,0.00,WeatherDisplay:10.37,2013-02-15 14:05:00,
2013-02-15 09:10:00,48.7,45.3,30.03,North,0,0.0,0.0,88,0.00,CLR,CLR,0.00,WeatherDisplay:10.37,2013-02-15 14:10:00,
2013-02-15 09:16:00,49.6,46.8,30.03,North,0,0.0,0.0,90,0.00,CLR,CLR,0.00,WeatherDisplay:10.37,2013-02-15 14:16:00,
2013-02-15 09:21:00,49.5,44.2,30.00,North,0,0.0,0.0,82,0.00,CLR,CLR,0.00,WeatherDisplay:10.37,2013-02-15 14:21:00,
2013-02-15 09:26:00,50.2,45.2,30.00,North,0,0.0,0.0,83,0.00,CLR,CLR,0.00,WeatherDisplay:10.37,2013-02-15 14:26:00,
2013-02-15 09:31:00,50.2,42.6,30.00,North,0,0.0,0.0,75,0.00,CLR,CLR,0.00,WeatherDisplay:10.37,2013-02-15 14:31:00,
2013-02-15 09:37:00,50.7,43.1,30.00,North,0,0.0,0.0,75,0.00,CLR,CLR,0.00,WeatherDisplay:10.37,2013-02-15 14:37:00,
2013-02-15 09:42:00,50.9,41.1,30.00,North,0,0.0,0.0,69,0.00,CLR,CLR,0.00,WeatherDisplay:10.37,2013-02-15 14:42:00,
2013-02-15 09:47:00,52.0,43.6,30.00,North,0,0.0,0.0,73,0.00,CLR,CLR,0.00,WeatherDisplay:10.37,2013-02-15 14:47:00,
2013-02-15 09:52:00,51.6,41.0,30.00,North,0,0.0,0.0,67,0.00,CLR,CLR,0.00,WeatherDisplay:10.37,2013-02-15 14:52:00,
2013-02-15 09:57:00,51.8,41.2,30.00,North,0,0.0,0.0,67,0.00,CLR,CLR,0.00,WeatherDisplay:10.37,2013-02-15 14:57:00,
2013-02-15 10:02:00,52.2,41.1,30.03,North,0,0.0,0.0,66,0.00,CLR,CLR,0.00,WeatherDisplay:10.37,2013-02-15 15:02:00,
2013-02-15 10:07:00,52.7,40.9,30.03,North,0,0.0,0.0,64,0.00,CLR,CLR,0.00,WeatherDisplay:10.37,2013-02-15 15:07:00,
2013-02-15 10:13:00,52.5,39.9,30.03,North,0,0.0,0.0,62,0.00,CLR,CLR,0.00,WeatherDisplay:10.37,2013-02-15 15:13:00,
2013-02-15 10:18:00,52.7,40.0,30.03,North,0,0.0,0.0,62,0.00,CLR,CLR,0.00,WeatherDisplay:10.37,2013-02-15 15:18:00,
2013-02-15 10:23:00,53.4,40.7,30.03,North,0,0.0,0.0,62,0.00,CLR,CLR,0.00,WeatherDisplay:10.37,2013-02-15 15:23:00,
2013-02-15 10:28:00,53.8,39.8,30.03,North,0,0.0,0.0,59,0.00,CLR,CLR,0.00,WeatherDisplay:10.37,2013-02-15 15:28:00,
2013-02-15 10:34:00,53.4,37.2,30.00,North,0,0.0,0.0,54,0.00,CLR,CLR,0.00,WeatherDisplay:10.37,2013-02-15 15:34:00,
2013-02-15 10:39:00,54.3,38.9,30.00,North,0,0.0,0.0,56,0.00,CLR,CLR,0.00,WeatherDisplay:10.37,2013-02-15 15:39:00,
2013-02-15 10:44:00,54.3,37.5,30.00,North,0,0.0,0.0,53,0.00,CLR,CLR,0.00,WeatherDisplay:10.37,2013-02-15 15:44:00,
2013-02-15 10:49:00,54.3,36.6,30.03,North,0,0.0,0.0,51,0.00,CLR,CLR,0.00,WeatherDisplay:10.37,2013-02-15 15:49:00,
2013-02-15 10:54:00,54.7,37.9,30.03,North,0,0.0,0.0,53,0.00,CLR,CLR,0.00,WeatherDisplay:10.37,2013-02-15 15:54:00,
2013-02-15 10:59:00,54.0,35.7,30.03,North,0,0.0,0.0,50,0.00,CLR,CLR,0.00,WeatherDisplay:10.37,2013-02-15 15:59:00,
2013-02-15 11:04:00,54.5,36.7,30.00,North,0,0.0,0.0,51,0.00,CLR,CLR,0.00,WeatherDisplay:10.37,2013-02-15 16:04:00,
2013-02-15 11:09:00,54.5,37.2,30.00,North,0,0.0,0.0,52,0.00,CLR,CLR,0.00,WeatherDisplay:10.37,2013-02-15 16:09:00,
2013-02-15 11:14:00,55.0,37.7,30.00,North,0,0.0,0.0,52,0.00,CLR,CLR,0.00,WeatherDisplay:10.37,2013-02-15 16:14:00,
2013-02-15 11:20:00,54.3,36.6,30.00,North,0,0.0,0.0,51,0.00,CLR,CLR,0.00,WeatherDisplay:10.37,2013-02-15 16:20:00,
2013-02-15 11:25:00,55.2,37.4,30.00,North,0,0.0,0.0,51,0.00,CLR,CLR,0.00,WeatherDisplay:10.37,2013-02-15 16:25:00,
2013-02-15 11:30:00,55.0,37.7,30.00,North,0,0.0,0.0,52,0.00,CLR,CLR,0.00,WeatherDisplay:10.37,2013-02-15 16:30:00,
2013-02-15 11:35:00,55.0,37.2,30.00,North,0,0.0,0.0,51,0.00,CLR,CLR,0.00,WeatherDisplay:10.37,2013-02-15 16:35:00,
2013-02-15 11:40:00,55.2,36.9,30.00,North,0,0.0,0.0,50,0.00,CLR,CLR,0.00,WeatherDisplay:10.37,2013-02-15 16:40:00,
2013-02-15 11:46:00,55.8,38.4,30.00,North,0,0.0,0.0,52,0.00,CLR,CLR,0.00,WeatherDisplay:10.37,2013-02-15 16:46:00,
2013-02-15 11:51:00,55.6,37.7,30.00,North,0,0.0,0.0,51,0.00,CLR,CLR,0.00,WeatherDisplay:10.37,2013-02-15 16:51:00,
2013-02-15 11:56:00,56.3,38.4,30.00,North,0,0.0,0.0,51,0.00,CLR,CLR,0.00,WeatherDisplay:10.37,2013-02-15 16:56:00,
2013-02-15 12:01:00,56.5,38.6,30.00,North,0,0.0,0.0,51,0.00,CLR,CLR,0.00,WeatherDisplay:10.37,2013-02-15 17:01:00,
2013-02-15 12:06:00,56.7,38.2,30.00,North,0,0.0,0.0,50,0.00,CLR,CLR,0.00,WeatherDisplay:10.37,2013-02-15 17:06:00,
2013-02-15 12:11:00,56.3,37.4,30.00,North,0,0.0,0.0,49,0.00,CLR,CLR,0.00,WeatherDisplay:10.37,2013-02-15 17:11:00,
2013-02-15 12:16:00,56.7,38.2,30.00,North,0,0.0,0.0,50,0.00,CLR,CLR,0.00,WeatherDisplay:10.37,2013-02-15 17:16:00,
2013-02-15 12:21:00,57.6,38.5,29.97,North,0,0.0,0.0,49,0.00,CLR,CLR,0.00,WeatherDisplay:10.37,2013-02-15 17:21:00,
2013-02-15 12:26:00,57.6,39.6,29.97,North,0,0.0,0.0,51,0.00,CLR,CLR,0.00,WeatherDisplay:10.37,2013-02-15 17:26:00,
2013-02-15 12:32:00,57.9,39.4,29.97,North,0,0.0,0.0,50,0.00,CLR,CLR,0.00,WeatherDisplay:10.37,2013-02-15 17:32:00,
2013-02-15 12:37:00,57.9,39.9,29.97,North,0,0.0,0.0,51,0.00,CLR,CLR,0.00,WeatherDisplay:10.37,2013-02-15 17:37:00,
2013-02-15 12:42:00,57.9,37.8,29.97,North,0,0.0,0.0,47,0.00,CLR,CLR,0.00,WeatherDisplay:10.37,2013-02-15 17:42:00,
2013-02-15 12:47:00,57.9,37.2,29.97,North,0,0.0,0.0,46,0.00,CLR,CLR,0.00,WeatherDisplay:10.37,2013-02-15 17:47:00,
2013-02-15 12:52:00,57.7,36.5,29.97,North,0,0.0,0.0,45,0.00,CLR,CLR,0.00,WeatherDisplay:10.37,2013-02-15 17:52:00,
2013-02-15 12:57:00,57.6,35.2,29.97,North,0,0.0,0.0,43,0.00,CLR,CLR,0.00,WeatherDisplay:10.37,2013-02-15 17:57:00,
2013-02-15 13:02:00,57.4,35.0,29.97,North,0,0.0,0.0,43,0.00,CLR,CLR,0.00,WeatherDisplay:10.37,2013-02-15 18:02:00,
2013-02-15 13:07:00,59.2,37.8,29.97,North,0,0.0,0.0,45,0.00,CLR,CLR,0.00,WeatherDisplay:10.37,2013-02-15 18:07:00,
2013-02-15 13:12:00,59.4,38.6,29.97,North,0,0.0,0.0,46,0.00,CLR,CLR,0.00,WeatherDisplay:10.37,2013-02-15 18:12:00,
2013-02-15 13:17:00,59.2,37.3,29.97,North,0,0.0,0.0,44,0.00,CLR,CLR,0.00,WeatherDisplay:10.37,2013-02-15 18:17:00,
2013-02-15 13:23:00,57.9,35.5,29.97,North,0,0.0,0.0,43,0.00,CLR,CLR,0.00,WeatherDisplay:10.37,2013-02-15 18:23:00,
2013-02-15 13:28:00,58.5,36.6,29.97,North,0,0.0,0.0,44,0.00,CLR,CLR,0.00,WeatherDisplay:10.37,2013-02-15 18:28:00,
2013-02-15 13:33:00,58.8,36.4,29.94,North,0,0.0,0.0,43,0.00,CLR,CLR,0.00,WeatherDisplay:10.37,2013-02-15 18:33:00,
2013-02-15 13:38:00,58.8,37.5,29.94,North,0,0.0,0.0,45,0.00,CLR,CLR,0.00,WeatherDisplay:10.37,2013-02-15 18:38:00,
2013-02-15 13:43:00,58.8,37.5,29.94,North,0,0.0,0.0,45,0.00,CLR,CLR,0.00,WeatherDisplay:10.37,2013-02-15 18:43:00,
2013-02-15 13:48:00,60.3,38.8,29.94,North,0,0.0,0.0,45,0.00,CLR,CLR,0.00,WeatherDisplay:10.37,2013-02-15 18:48:00,
2013-02-15 13:53:00,60.1,38.7,29.94,North,0,0.0,0.0,45,0.00,CLR,CLR,0.00,WeatherDisplay:10.37,2013-02-15 18:53:00,
2013-02-15 13:59:00,59.4,37.4,29.94,North,0,0.0,0.0,44,0.00,CLR,CLR,0.00,WeatherDisplay:10.37,2013-02-15 18:59:00,
2013-02-15 14:04:00,60.1,38.7,29.94,North,0,0.0,0.0,45,0.00,CLR,CLR,0.00,WeatherDisplay:10.37,2013-02-15 19:04:00,
2013-02-15 14:09:00,59.7,37.8,29.94,North,0,0.0,0.0,44,0.00,CLR,CLR,0.00,WeatherDisplay:10.37,2013-02-15 19:09:00,
2013-02-15 14:14:00,61.2,39.1,29.94,North,0,0.0,0.0,44,0.00,CLR,CLR,0.00,WeatherDisplay:10.37,2013-02-15 19:14:00,
2013-02-15 14:19:00,62.2,41.7,29.94,North,0,0.0,0.0,47,0.00,CLR,CLR,0.00,WeatherDisplay:10.37,2013-02-15 19:19:00,
2013-02-15 14:25:00,60.6,39.7,29.94,North,0,0.0,0.0,46,0.00,CLR,CLR,0.00,WeatherDisplay:10.37,2013-02-15 19:25:00,
2013-02-15 14:30:00,60.1,36.9,29.94,North,0,0.0,0.0,42,0.00,CLR,CLR,0.00,WeatherDisplay:10.37,2013-02-15 19:30:00,
2013-02-15 14:35:00,59.7,37.8,29.94,North,0,0.0,0.0,44,0.00,CLR,CLR,0.00,WeatherDisplay:10.37,2013-02-15 19:35:00,
2013-02-15 14:40:00,60.6,38.6,29.94,North,0,0.0,0.0,44,0.00,CLR,CLR,0.00,WeatherDisplay:10.37,2013-02-15 19:40:00,
2013-02-15 14:45:00,61.3,39.8,29.94,North,0,0.0,0.0,45,0.00,CLR,CLR,0.00,WeatherDisplay:10.37,2013-02-15 19:45:00,
2013-02-15 14:51:00,62.4,41.4,29.94,North,0,0.0,0.0,46,0.00,CLR,CLR,0.00,WeatherDisplay:10.37,2013-02-15 19:51:00,
2013-02-15 14:56:00,62.6,41.5,29.94,North,0,0.0,0.0,46,0.00,CLR,CLR,0.00,WeatherDisplay:10.37,2013-02-15 19:56:00,
2013-02-15 15:01:00,63.5,42.9,29.94,North,0,0.0,0.0,47,0.00,CLR,CLR,0.00,WeatherDisplay:10.37,2013-02-15 20:01:00,
2013-02-15 15:06:00,63.5,42.9,29.94,North,0,0.0,0.0,47,0.00,CLR,CLR,0.00,WeatherDisplay:10.37,2013-02-15 20:06:00,
2013-02-15 15:11:00,62.4,42.5,29.94,North,0,0.0,0.0,48,0.00,CLR,CLR,0.00,WeatherDisplay:10.37,2013-02-15 20:11:00,
2013-02-15 15:16:00,62.8,42.8,29.94,North,0,0.0,0.0,48,0.00,CLR,CLR,0.00,WeatherDisplay:10.37,2013-02-15 20:16:00,
2013-02-15 15:21:00,63.5,43.4,29.91,North,0,0.0,0.0,48,0.00,CLR,CLR,0.00,WeatherDisplay:10.37,2013-02-15 20:21:00,
2013-02-15 15:26:00,62.6,42.1,29.91,North,0,0.0,0.0,47,0.00,CLR,CLR,0.00,WeatherDisplay:10.37,2013-02-15 20:26:00,
2013-02-15 15:32:00,62.6,42.1,29.91,North,0,0.0,0.0,47,0.00,CLR,CLR,0.00,WeatherDisplay:10.37,2013-02-15 20:32:00,
2013-02-15 15:37:00,63.0,43.0,29.91,North,0,0.0,0.0,48,0.00,CLR,CLR,0.00,WeatherDisplay:10.37,2013-02-15 20:37:00,
2013-02-15 15:42:00,63.5,44.0,29.91,North,0,0.0,0.0,49,0.00,CLR,CLR,0.00,WeatherDisplay:10.37,2013-02-15 20:42:00,
2013-02-15 15:47:00,63.1,43.7,29.91,North,0,0.0,0.0,49,0.00,CLR,CLR,0.00,WeatherDisplay:10.37,2013-02-15 20:47:00,
2013-02-15 15:53:00,62.2,42.3,29.91,North,0,0.0,0.0,48,0.00,CLR,CLR,0.00,WeatherDisplay:10.37,2013-02-15 20:53:00,
2013-02-15 15:58:00,61.9,42.5,29.91,North,0,0.0,0.0,49,0.00,CLR,CLR,0.00,WeatherDisplay:10.37,2013-02-15 20:58:00,
2013-02-15 16:03:00,62.6,43.2,29.91,North,0,0.0,0.0,49,0.00,CLR,CLR,0.00,WeatherDisplay:10.37,2013-02-15 21:03:00,
2013-02-15 16:08:00,62.1,43.2,29.91,North,0,0.0,0.0,50,0.00,CLR,CLR,0.00,WeatherDisplay:10.37,2013-02-15 21:08:00,
2013-02-15 16:13:00,62.2,43.4,29.91,North,0,0.0,0.0,50,0.00,CLR,CLR,0.00,WeatherDisplay:10.37,2013-02-15 21:13:00,
2013-02-15 16:18:00,61.3,42.0,29.91,North,0,0.0,0.0,49,0.00,CLR,CLR,0.00,WeatherDisplay:10.37,2013-02-15 21:18:00,
2013-02-15 16:23:00,61.0,42.2,29.91,North,0,0.0,0.0,50,0.00,CLR,CLR,0.00,WeatherDisplay:10.37,2013-02-15 21:23:00,
2013-02-15 16:28:00,60.8,41.5,29.91,North,0,0.0,0.0,49,0.00,CLR,CLR,0.00,WeatherDisplay:10.37,2013-02-15 21:28:00,
2013-02-15 16:33:00,60.6,41.9,29.91,North,0,0.0,0.0,50,0.00,CLR,CLR,0.00,WeatherDisplay:10.37,2013-02-15 21:33:00,
2013-02-15 16:39:00,60.1,41.4,29.91,North,0,0.0,0.0,50,0.00,CLR,CLR,0.00,WeatherDisplay:10.37,2013-02-15 21:39:00,
2013-02-15 16:44:00,59.7,41.0,29.91,North,0,0.0,0.0,50,0.00,CLR,CLR,0.00,WeatherDisplay:10.37,2013-02-15 21:44:00,
2013-02-15 16:49:00,59.5,40.9,29.91,North,0,0.0,0.0,50,0.00,CLR,CLR,0.00,WeatherDisplay:10.37,2013-02-15 21:49:00,
2013-02-15 16:54:00,59.2,41.1,29.91,North,0,0.0,0.0,51,0.00,CLR,CLR,0.00,WeatherDisplay:10.37,2013-02-15 21:54:00,
2013-02-15 16:59:00,59.2,41.1,29.91,North,0,0.0,0.0,51,0.00,CLR,CLR,0.00,WeatherDisplay:10.37,2013-02-15 21:59:00,
2013-02-15 17:04:00,57.7,40.2,29.91,North,0,0.0,0.0,52,0.00,CLR,CLR,0.00,WeatherDisplay:10.37,2013-02-15 22:04:00,
2013-02-15 17:09:00,56.7,39.2,29.91,North,0,0.0,0.0,52,0.00,CLR,CLR,0.00,WeatherDisplay:10.37,2013-02-15 22:09:00,
2013-02-15 17:15:00,55.9,38.6,29.91,North,0,0.0,0.0,52,0.00,CLR,CLR,0.00,WeatherDisplay:10.37,2013-02-15 22:15:00,
2013-02-15 17:20:00,55.0,38.2,29.91,North,0,0.0,0.0,53,0.00,CLR,CLR,0.00,WeatherDisplay:10.37,2013-02-15 22:20:00,
2013-02-15 17:25:00,54.5,37.7,29.91,North,0,0.0,0.0,53,0.00,CLR,CLR,0.00,WeatherDisplay:10.37,2013-02-15 22:25:00,
2013-02-15 17:30:00,54.0,37.7,29.91,North,0,0.0,0.0,54,0.00,CLR,CLR,0.00,WeatherDisplay:10.37,2013-02-15 22:30:00,
2013-02-15 17:35:00,53.2,37.5,29.91,North,0,0.0,0.0,55,0.00,CLR,CLR,0.00,WeatherDisplay:10.37,2013-02-15 22:35:00,
2013-02-15 17:40:00,52.7,37.4,29.91,North,0,0.0,0.0,56,0.00,CLR,CLR,0.00,WeatherDisplay:10.37,2013-02-15 22:40:00,
2013-02-15 17:45:00,51.8,37.0,29.91,North,0,0.0,0.0,57,0.00,CLR,CLR,0.00,WeatherDisplay:10.37,2013-02-15 22:45:00,
2013-02-15 17:51:00,51.3,37.0,29.91,North,0,0.0,0.0,58,0.00,CLR,CLR,0.00,WeatherDisplay:10.37,2013-02-15 22:51:00,
2013-02-15 17:56:00,50.4,36.6,29.91,North,0,0.0,0.0,59,0.00,CLR,CLR,0.00,WeatherDisplay:10.37,2013-02-15 22:56:00,
2013-02-15 18:01:00,50.0,36.7,29.91,North,0,0.0,0.0,60,0.00,CLR,CLR,0.00,WeatherDisplay:10.37,2013-02-15 23:01:00,
2013-02-15 18:06:00,49.5,36.6,29.91,North,0,0.0,0.0,61,0.00,CLR,CLR,0.00,WeatherDisplay:10.37,2013-02-15 23:06:00,
2013-02-15 18:11:00,48.9,36.5,29.91,North,0,0.0,0.0,62,0.00,CLR,CLR,0.00,WeatherDisplay:10.37,2013-02-15 23:11:00,
2013-02-15 18:16:00,48.6,36.1,29.91,North,0,0.0,0.0,62,0.00,CLR,CLR,0.00,WeatherDisplay:10.37,2013-02-15 23:16:00,
2013-02-15 18:21:00,47.7,36.1,29.91,North,0,0.0,0.0,64,0.00,CLR,CLR,0.00,WeatherDisplay:10.37,2013-02-15 23:21:00,
2013-02-15 18:26:00,47.3,35.7,29.91,North,0,0.0,0.0,64,0.00,CLR,CLR,0.00,WeatherDisplay:10.37,2013-02-15 23:26:00,
2013-02-15 18:31:00,46.9,35.8,29.91,North,0,0.0,0.0,65,0.00,CLR,CLR,0.00,WeatherDisplay:10.37,2013-02-15 23:31:00,
2013-02-15 18:36:00,46.4,35.7,29.91,North,0,0.0,0.0,66,0.00,CLR,CLR,0.00,WeatherDisplay:10.37,2013-02-15 23:36:00,
2013-02-15 18:42:00,46.0,35.7,29.91,North,0,0.0,0.0,67,0.00,CLR,CLR,0.00,WeatherDisplay:10.37,2013-02-15 23:42:00,
2013-02-15 18:47:00,45.7,35.3,29.91,North,0,0.0,0.0,67,0.00,CLR,CLR,0.00,WeatherDisplay:10.37,2013-02-15 23:47:00,
2013-02-15 18:52:00,44.8,34.9,29.91,North,0,0.0,0.0,68,0.00,CLR,CLR,0.00,WeatherDisplay:10.37,2013-02-15 23:52:00,
2013-02-15 18:57:00,44.8,35.2,29.91,North,0,0.0,0.0,69,0.00,CLR,CLR,0.00,WeatherDisplay:10.37,2013-02-15 23:57:00,
2013-02-15 19:02:00,44.4,35.2,29.91,North,0,0.0,0.0,70,0.00,CLR,CLR,0.00,WeatherDisplay:10.37,2013-02-16 00:02:00,
2013-02-15 19:07:00,44.2,35.1,29.91,North,0,0.0,0.0,70,0.00,CLR,CLR,0.00,WeatherDisplay:10.37,2013-02-16 00:07:00,
2013-02-15 19:12:00,43.9,35.1,29.91,North,0,0.0,0.0,71,0.00,CLR,CLR,0.00,WeatherDisplay:10.37,2013-02-16 00:12:00,
2013-02-15 19:17:00,43.5,34.7,29.91,North,0,0.0,0.0,71,0.00,CLR,CLR,0.00,WeatherDisplay:10.37,2013-02-16 00:17:00,
2013-02-15 19:23:00,43.3,34.9,29.91,North,0,0.0,0.0,72,0.00,CLR,CLR,0.00,WeatherDisplay:10.37,2013-02-16 00:23:00,
2013-02-15 19:28:00,43.2,34.7,29.91,North,0,0.0,0.0,72,0.00,CLR,CLR,0.00,WeatherDisplay:10.37,2013-02-16 00:28:00,
2013-02-15 19:33:00,42.8,34.4,29.91,North,0,0.0,0.0,72,0.00,CLR,CLR,0.00,WeatherDisplay:10.37,2013-02-16 00:33:00,
2013-02-15 19:38:00,42.4,34.4,29.91,North,0,0.0,0.0,73,0.00,CLR,CLR,0.00,WeatherDisplay:10.37,2013-02-16 00:38:00,
2013-02-15 19:43:00,42.3,34.2,29.91,North,0,0.0,0.0,73,0.00,CLR,CLR,0.00,WeatherDisplay:10.37,2013-02-16 00:43:00,
2013-02-15 19:48:00,41.5,33.9,29.91,North,0,0.0,0.0,74,0.00,CLR,CLR,0.00,WeatherDisplay:10.37,2013-02-16 00:48:00,
2013-02-15 19:53:00,41.0,33.7,29.91,North,0,0.0,0.0,75,0.00,CLR,CLR,0.00,WeatherDisplay:10.37,2013-02-16 00:53:00,
2013-02-15 19:58:00,40.8,33.8,29.91,North,0,0.0,0.0,76,0.00,CLR,CLR,0.00,WeatherDisplay:10.37,2013-02-16 00:58:00,
2013-02-15 20:03:00,40.8,33.8,29.91,North,0,0.0,0.0,76,0.00,CLR,CLR,0.00,WeatherDisplay:10.37,2013-02-16 01:03:00,
2013-02-15 20:09:00,40.8,33.8,29.91,North,0,0.0,0.0,76,0.00,CLR,CLR,0.00,WeatherDisplay:10.37,2013-02-16 01:09:00,
2013-02-15 20:14:00,40.6,33.7,29.91,North,0,0.0,0.0,76,0.00,CLR,CLR,0.00,WeatherDisplay:10.37,2013-02-16 01:14:00,
2013-02-15 20:19:00,40.5,33.8,29.91,North,0,0.0,0.0,77,0.00,CLR,CLR,0.00,WeatherDisplay:10.37,2013-02-16 01:19:00,
2013-02-15 20:24:00,40.3,33.6,29.91,North,0,0.0,0.0,77,0.00,CLR,CLR,0.00,WeatherDisplay:10.37,2013-02-16 01:24:00,
2013-02-15 20:29:00,40.3,33.6,29.91,North,0,0.0,0.0,77,0.00,CLR,CLR,0.00,WeatherDisplay:10.37,2013-02-16 01:29:00,
2013-02-15 20:34:00,40.1,33.5,29.91,North,0,0.0,0.0,77,0.00,CLR,CLR,0.00,WeatherDisplay:10.37,2013-02-16 01:34:00,
2013-02-15 20:39:00,39.7,33.4,29.91,North,0,0.0,0.0,78,0.00,CLR,CLR,0.00,WeatherDisplay:10.37,2013-02-16 01:39:00,
2013-02-15 20:44:00,39.4,33.4,29.91,North,0,0.0,0.0,79,0.00,CLR,CLR,0.00,WeatherDisplay:10.37,2013-02-16 01:44:00,
2013-02-15 20:50:00,39.2,33.2,29.91,North,0,0.0,0.0,79,0.00,CLR,CLR,0.00,WeatherDisplay:10.37,2013-02-16 01:50:00,
2013-02-15 20:55:00,39.0,33.4,29.91,North,0,0.0,0.0,80,0.00,CLR,CLR,0.00,WeatherDisplay:10.37,2013-02-16 01:55:00,
2013-02-15 21:00:00,38.8,33.2,29.91,North,0,0.0,0.0,80,0.00,CLR,CLR,0.00,WeatherDisplay:10.37,2013-02-16 02:00:00,
2013-02-15 21:05:00,38.8,33.5,29.91,North,0,0.0,0.0,81,0.00,CLR,CLR,0.00,WeatherDisplay:10.37,2013-02-16 02:05:00,
2013-02-15 21:11:00,38.7,33.6,29.91,North,0,0.0,0.0,82,0.00,CLR,CLR,0.00,WeatherDisplay:10.37,2013-02-16 02:11:00,
2013-02-15 21:16:00,38.7,33.6,29.91,North,0,0.0,0.0,82,0.00,CLR,CLR,0.00,WeatherDisplay:10.37,2013-02-16 02:16:00,
2013-02-15 21:21:00,38.5,33.5,29.91,North,0,0.0,0.0,82,0.00,CLR,CLR,0.00,WeatherDisplay:10.37,2013-02-16 02:21:00,
2013-02-15 21:26:00,38.5,33.5,29.91,North,0,0.0,0.0,82,0.00,CLR,CLR,0.00,WeatherDisplay:10.37,2013-02-16 02:26:00,
2013-02-15 21:31:00,38.3,33.6,29.91,North,0,0.0,0.0,83,0.00,CLR,CLR,0.00,WeatherDisplay:10.37,2013-02-16 02:31:00,
2013-02-15 21:37:00,38.1,33.4,29.91,North,0,0.0,0.0,83,0.00,CLR,CLR,0.00,WeatherDisplay:10.37,2013-02-16 02:37:00,
2013-02-15 21:42:00,38.1,33.4,29.91,North,0,0.0,0.0,83,0.00,CLR,CLR,0.00,WeatherDisplay:10.37,2013-02-16 02:42:00,
2013-02-15 21:47:00,37.9,33.2,29.91,North,0,0.0,0.0,83,0.00,CLR,CLR,0.00,WeatherDisplay:10.37,2013-02-16 02:47:00,
2013-02-15 21:52:00,37.9,33.2,29.91,North,0,0.0,0.0,83,0.00,CLR,CLR,0.00,WeatherDisplay:10.37,2013-02-16 02:52:00,
2013-02-15 21:57:00,37.8,33.4,29.91,North,0,0.0,0.0,84,0.00,CLR,CLR,0.00,WeatherDisplay:10.37,2013-02-16 02:57:00,
2013-02-15 22:02:00,37.6,33.2,29.91,North,0,0.0,0.0,84,0.00,CLR,CLR,0.00,WeatherDisplay:10.37,2013-02-16 03:02:00,
2013-02-15 22:07:00,37.8,33.7,29.91,North,0,0.0,0.0,85,0.00,CLR,CLR,0.00,WeatherDisplay:10.37,2013-02-16 03:07:00,
2013-02-15 22:11:00,37.6,33.5,29.91,North,0,0.0,0.0,85,0.00,CLR,CLR,0.00,WeatherDisplay:10.37,2013-02-16 03:11:00,
2013-02-15 22:12:00,37.4,33.3,29.91,North,0,0.0,0.0,85,0.00,CLR,CLR,0.00,WeatherDisplay:10.37,2013-02-16 03:12:00,
2013-02-15 22:17:00,37.2,33.1,29.91,North,0,0.0,0.0,85,0.00,CLR,CLR,0.00,WeatherDisplay:10.37,2013-02-16 03:17:00,
2013-02-15 22:23:00,37.6,33.5,29.91,North,0,0.0,0.0,85,0.00,CLR,CLR,0.00,WeatherDisplay:10.37,2013-02-16 03:23:00,
2013-02-15 22:28:00,37.2,33.4,29.91,North,0,0.0,0.0,86,0.00,CLR,CLR,0.00,WeatherDisplay:10.37,2013-02-16 03:28:00,
2013-02-15 22:33:00,37.2,33.4,29.91,North,0,0.0,0.0,86,0.00,CLR,CLR,0.00,WeatherDisplay:10.37,2013-02-16 03:33:00,
2013-02-15 22:38:00,36.9,33.1,29.91,North,0,0.0,0.0,86,0.00,CLR,CLR,0.00,WeatherDisplay:10.37,2013-02-16 03:38:00,
2013-02-15 22:43:00,36.9,33.1,29.91,North,0,0.0,0.0,86,0.00,CLR,CLR,0.00,WeatherDisplay:10.37,2013-02-16 03:43:00,
2013-02-15 22:49:00,36.9,33.1,29.91,North,0,0.0,0.0,86,0.00,CLR,CLR,0.00,WeatherDisplay:10.37,2013-02-16 03:49:00,
2013-02-15 22:54:00,36.9,33.1,29.91,North,0,0.0,0.0,86,0.00,CLR,CLR,0.00,WeatherDisplay:10.37,2013-02-16 03:54:00,
2013-02-15 22:59:00,36.7,33.2,29.91,North,0,0.0,0.0,87,0.00,CLR,CLR,0.00,WeatherDisplay:10.37,2013-02-16 03:59:00,
2013-02-15 23:04:00,36.7,33.2,29.91,North,0,0.0,0.0,87,0.00,CLR,CLR,0.00,WeatherDisplay:10.37,2013-02-16 04:04:00,
2013-02-15 23:09:00,36.7,33.2,29.91,North,0,0.0,0.0,87,0.00,CLR,CLR,0.00,WeatherDisplay:10.37,2013-02-16 04:09:00,
2013-02-15 23:15:00,36.7,33.2,29.91,North,0,0.0,0.0,87,0.00,CLR,CLR,0.00,WeatherDisplay:10.37,2013-02-16 04:15:00,
2013-02-15 23:20:00,36.3,32.8,29.91,North,0,0.0,0.0,87,0.00,CLR,CLR,0.00,WeatherDisplay:10.37,2013-02-16 04:20:00,
2013-02-15 23:25:00,36.1,32.6,29.91,North,0,0.0,0.0,87,0.00,CLR,CLR,0.00,WeatherDisplay:10.37,2013-02-16 04:25:00,
2013-02-15 23:30:00,36.1,32.9,29.91,North,0,0.0,0.0,88,0.00,CLR,CLR,0.00,WeatherDisplay:10.37,2013-02-16 04:30:00,
2013-02-15 23:35:00,36.1,32.9,29.88,North,0,0.0,0.0,88,0.00,CLR,CLR,0.00,WeatherDisplay:10.37,2013-02-16 04:35:00,
2013-02-15 23:40:00,35.8,32.6,29.88,North,0,0.0,0.0,88,0.00,CLR,CLR,0.00,WeatherDisplay:10.37,2013-02-16 04:40:00,
2013-02-15 23:45:00,35.8,32.6,29.88,North,0,0.0,0.0,88,0.00,CLR,CLR,0.00,WeatherDisplay:10.37,2013-02-16 04:45:00,
2013-02-15 23:50:00,36.0,32.8,29.88,North,0,0.0,0.0,88,0.00,CLR,CLR,0.00,WeatherDisplay:10.37,2013-02-16 04:50:00,
2013-02-15 23:55:00,36.0,32.8,29.88,North,0,0.0,0.0,88,0.00,CLR,CLR,0.00,WeatherDisplay:10.37,2013-02-16 04:55:00,